Flag for Germany Weather past 2 weeks in Remscheid, North Rhine-Westphalia, Germany

Now
55 °F

Scattered clouds.


Feels Like: 55 °F
Forecast: 51 / 62 °F
Wind: 2 mph from Southwest

Location: Duesseldorf

Current Time: May 27, 2015 at 11:05:36 AM

Latest Report: May 27, 2015 at 10:20 AM


Visibility: N/A

Pressure: 30.27 "Hg

Humidity: 55%

Dew point: 39 °F

Location of RemscheidLocation

Historic Weather in Remscheid — Graph

°F

Remscheid temperature yesterday

Maximum temperature yesterday: 59 °F (at 5:20 PM)
Minimum temperature yesterday: 50 °F (at 3:20 AM)
Average temperature yesterday: 54 °F

Past Weeks' High & Low Weather Summary

 TemperatureHumidityPressure
High70 °F (May 12, 1:20 PM)100% (May 16, 3:50 PM)30.33 "Hg (May 16, 3:50 PM)
Low37 °F (May 21, 4:20 AM)32% (May 13, 6:20 PM)29.65 "Hg (May 18, 6:20 PM)
Average55 °F66%30.07 "Hg
* Reported May 12 9:20 AM — May 27 9:50 AM, Remscheid, Weather by CustomWeather, © 2015

Note: Actual official high and low records may vary slightly from our data, if they occured in-between our weather recording intervals... More about our weather records

Advertising

Remscheid weather history for previous 24 hours

 ConditionsComfort  
Time TempWeatherWind HumidityBarometerVisibility
9:50 AM
Wed, May 27
57 °FPassing clouds.5 mph48%30.27 "HgN/A
9:20 AM55 °FPartly sunny.5 mph55%30.27 "HgN/A
8:50 AM54 °FPartly sunny.3 mph67%30.27 "HgN/A
8:20 AM52 °FPartly sunny.3 mph72%30.27 "HgN/A
7:50 AM52 °FPartly sunny.5 mph72%30.24 "HgN/A
7:20 AM52 °FPartly sunny.1 mph72%30.24 "HgN/A
6:50 AM50 °FPartly sunny.2 mph76%30.24 "HgN/A
6:20 AM50 °FPassing clouds.3 mph76%30.24 "HgN/A
5:50 AM50 °FOvercast.3 mph76%30.24 "HgN/A
5:20 AM50 °FOvercast.3 mph76%30.24 "HgN/A
4:50 AM48 °FOvercast.1 mph82%30.24 "HgN/A
4:20 AM48 °FOvercast.1 mph82%30.27 "HgN/A
3:50 AM48 °FOvercast.1 mph82%30.24 "HgN/A
3:20 AM48 °FOvercast.1 mph82%30.24 "HgN/A
2:50 AM48 °FOvercast.3 mph82%30.24 "HgN/A
2:20 AM48 °FOvercast.2 mph82%30.24 "HgN/A
1:50 AM50 °FOvercast.3 mph71%30.24 "HgN/A
1:20 AM50 °FOvercast.5 mph71%30.24 "HgN/A
12:50 AM50 °FOvercast.3 mph71%30.24 "HgN/A
12:20 AM48 °FPassing clouds.3 mph76%30.24 "HgN/A
11:20 PM
Tue, May 26
50 °FClear.5 mph71%30.24 "Hg10 mi
10:50 PM50 °FClear.7 mph71%30.24 "Hg10 mi
10:20 PM52 °FSunny.7 mph67%30.21 "Hg10 mi
9:50 PM52 °FSunny.7 mph67%30.21 "Hg10 mi
9:20 PM54 °FPartly sunny.8 mph63%30.21 "HgN/A
8:50 PM54 °FPartly sunny.8 mph58%30.21 "HgN/A
8:20 PM55 °FPartly sunny.9 mph55%30.18 "HgN/A
7:50 PM55 °FPartly sunny.10 mph55%30.18 "HgN/A
7:20 PM57 °FPartly sunny.10 mph51%30.18 "HgN/A
6:50 PM59 °FPartly sunny.13 mph45%30.18 "HgN/A
6:20 PM59 °FBroken clouds.12 mph48%30.15 "HgN/A
5:50 PM59 °FBroken clouds.13 mph45%30.15 "HgN/A
5:20 PM59 °FBroken clouds.13 mph45%30.15 "HgN/A
4:50 PM57 °FBroken clouds.12 mph51%30.15 "HgN/A
4:20 PM57 °FBroken clouds.10 mph55%30.15 "HgN/A
3:50 PM57 °FBroken clouds.12 mph55%30.15 "HgN/A
3:20 PM57 °FBroken clouds.10 mph55%30.15 "HgN/A
2:50 PM57 °FPartly sunny.9 mph59%30.15 "HgN/A
2:20 PM54 °FBroken clouds.6 mph63%30.15 "HgN/A
1:50 PM54 °FPartly sunny.10 mph67%30.15 "HgN/A
1:20 PM55 °FBroken clouds.12 mph59%30.15 "HgN/A
12:50 PM57 °FBroken clouds.9 mph55%30.12 "HgN/A
12:20 PM55 °FBroken clouds.9 mph55%30.12 "HgN/A
11:50 AM55 °FBroken clouds.12 mph55%30.12 "HgN/A
11:20 AM55 °FPartly sunny.9 mph55%30.12 "HgN/A
Weather by CustomWeather, © 2015

See weather overviewHow to use our weather pages